Home   Weather   Wageningen   Past weeks

Flag for Netherlands Past Weather in Wageningen, Netherlands — Yesterday and Last 2 Weeks

Now
61 °F

Overcast.


Feels Like: 61 °F
Forecast: 50 / 64 °F
Wind: 14 mph from Southwest

Location: Deelen

Current Time: Sep 29, 2016 at 7:14:31 AM

Latest Report: Sep 29, 2016 at 6:25 AM


Visibility: N/A

Pressure: 30.04 "Hg

Humidity: 77%

Dew Point: 54 °F

Location of WageningenLocation

Past Weather in Wageningen — Graph

°F

Wageningen Temperature Yesterday

Maximum temperature yesterday: 72 °F (at 1:25 PM)
Minimum temperature yesterday: 59 °F (at 7:25 AM)
Average temperature yesterday: 65 °F

High & Low Weather Summary for the Past Weeks

 TemperatureHumidityPressure
High90 °F (Sep 14, 1:55 PM)100% (Sep 16, 4:25 AM)30.30 "Hg (Sep 16, 4:25 AM)
Low39 °F (Sep 27, 5:55 AM)29% (Sep 14, 3:25 PM)29.80 "Hg (Sep 15, 2:55 PM)
Average62 °F73%30.08 "Hg
* Reported Sep 14 5:25 AM — Sep 29 5:55 AM, Wageningen, Weather by CustomWeather, © 2016

Note: Actual official high and low records may vary slightly from our data, if they occured in-between our weather recording intervals... More about our weather records

Advertising

Wageningen Weather History for the Previous 24 Hours

Scroll right to see more
 ConditionsComfort  
Time TempWeatherWind HumidityBarometerVisibility
5:55 AM
Thu, Sep 29
61 °FHigh level clouds.16 mph77%30.04 "HgN/A
5:25 AM61 °FOvercast.16 mph77%30.04 "HgN/A
4:55 AM61 °FPassing clouds.15 mph72%30.07 "HgN/A
4:25 AM61 °FHigh level clouds.14 mph72%30.07 "HgN/A
3:55 AM63 °FPassing clouds.14 mph68%30.09 "HgN/A
3:25 AM63 °FPassing clouds.12 mph68%30.09 "HgN/A
2:55 AM63 °FPassing clouds.12 mph68%30.09 "HgN/A
2:25 AM63 °FPassing clouds.13 mph68%30.12 "HgN/A
1:55 AM63 °FOvercast.12 mph68%30.12 "HgN/A
1:25 AM63 °FOvercast.12 mph68%30.12 "HgN/A
12:55 AM63 °FPassing clouds.10 mph68%30.15 "HgN/A
12:25 AM63 °FPassing clouds.8 mph73%30.15 "HgN/A
11:55 PM
Wed, Sep 28
64 °FOvercast.7 mph68%30.15 "HgN/A
11:25 PM64 °FPartly cloudy.8 mph68%30.15 "HgN/A
10:55 PM64 °FOvercast.9 mph68%30.15 "HgN/A
10:25 PM64 °FOvercast.8 mph68%30.15 "HgN/A
9:55 PM66 °FOvercast.7 mph64%30.15 "HgN/A
9:25 PM64 °FOvercast.3 mph68%30.15 "HgN/A
8:55 PM64 °FPassing clouds.3 mph68%30.18 "HgN/A
8:25 PM64 °FPassing clouds.7 mph68%30.18 "HgN/A
7:55 PM64 °FPassing clouds.7 mph68%30.18 "HgN/A
7:25 PM66 °FPassing clouds.6 mph60%30.18 "HgN/A
6:55 PM68 °FPassing clouds.10 mph56%30.18 "HgN/A
6:25 PM68 °FScattered clouds.12 mph60%30.18 "HgN/A
5:55 PM70 °FPartly sunny.13 mph57%30.18 "HgN/A
5:25 PM70 °FOvercast.14 mph57%30.18 "HgN/A
4:55 PM70 °FScattered clouds.15 mph57%30.18 "HgN/A
4:25 PM72 °FPassing clouds.16 mph53%30.18 "HgN/A
3:55 PM72 °FPartly sunny.17 mph53%30.18 "HgN/A
3:25 PM72 °FOvercast.17 mph53%30.18 "HgN/A
2:55 PM70 °FMild.16 mph57%30.21 "HgN/A
2:25 PM70 °FMostly cloudy.16 mph60%30.21 "HgN/A
1:55 PM72 °FScattered clouds.20 mph57%30.21 "HgN/A
1:25 PM72 °FPassing clouds.17 mph57%30.21 "HgN/A
12:55 PM68 °FScattered clouds.16 mph64%30.21 "HgN/A
12:25 PM70 °FScattered clouds.18 mph60%30.21 "HgN/A
11:55 AM68 °FBroken clouds.15 mph69%30.21 "HgN/A
11:25 AM68 °FPartly sunny.17 mph69%30.21 "HgN/A
10:55 AM66 °FBroken clouds.17 mph78%30.21 "HgN/A
10:25 AM64 °FMore clouds than sun.13 mph83%30.21 "HgN/A
9:55 AM63 °FOvercast.13 mph83%30.21 "HgN/A
9:25 AM63 °FPartly sunny.13 mph83%30.21 "HgN/A
8:55 AM61 °FOvercast.12 mph88%30.21 "HgN/A
8:25 AM61 °FBroken clouds.12 mph88%30.21 "HgN/A
7:55 AM61 °FMostly cloudy.10 mph83%30.21 "HgN/A
7:25 AM59 °FMostly cloudy.10 mph88%30.18 "HgN/A
Weather by CustomWeather, © 2016

See weather overviewHow to use our weather pages